VOYAGER:2:PRINTED,ON:,27-APR-02:14:19:28:GROUP01
START_TIME,STOP_TIME,SECTOR,SCAN_DIR,PL01RATE,PL01UNC,PL02RATE,PL02UNC,PL03RATE,PL03UNC,PL04RATE,PL04UNC,PL05RATE,PL05UNC
1989-08-26T23:53:35.110 ,1989-08-26 23:53:41.480 ,8,-1,0.781,0.349,0.833,0.373,0.667,0.333,0.000E+00,0.000E+00,0.208,0.147
1989-08-26T23:53:42.290 ,1989-08-26 23:54:29.480 ,7,-1,0.445,9.705E-02,0.278,7.704E-02,0.150,5.651E-02,0.214,6.754E-02,6.944E-02,4.009E-02
1989-08-26T23:54:30.290 ,1989-08-26 23:55:17.480 ,6,-1,0.657,0.118,0.214,6.754E-02,0.299,7.993E-02,4.274E-02,3.022E-02,6.944E-02,4.009E-02
1989-08-26T23:55:18.290 ,1989-08-26 23:56:05.480 ,5,-1,0.403,9.233E-02,0.212,6.697E-02,0.321,8.273E-02,8.547E-02,4.274E-02,2.315E-02,2.315E-02
1989-08-26T23:56:06.290 ,1989-08-26 23:56:53.480 ,4,-1,0.508,0.104,0.366,8.885E-02,0.212,6.697E-02,0.192,6.409E-02,0.116,5.176E-02
1989-08-26T23:56:54.290 ,1989-08-26 23:57:41.480 ,3,-1,0.466,9.934E-02,0.275,7.639E-02,0.233,7.024E-02,0.128,5.232E-02,0.185,6.545E-02
1989-08-26T23:57:42.290 ,1989-08-26 23:58:29.480 ,2,-1,0.508,0.104,0.366,8.885E-02,0.169,5.990E-02,0.128,5.232E-02,9.259E-02,4.630E-02
1989-08-26T23:58:29.480 ,1989-08-26 23:59:17.860 ,1,-1,0.545,0.132,0.449,0.120,0.162,7.260E-02,9.615E-02,5.551E-02,0.301,8.346E-02
1989-08-26T23:59:18.290 ,1989-08-26 23:00:05.480 ,1,1,0.572,0.110,0.339,8.475E-02,0.233,7.024E-02,0.107,4.778E-02,0.139,5.668E-02
1989-08-27T00:00:06.290 ,1989-08-27 24:00:53.480 ,2,1,0.487,0.102,0.572,0.110,0.212,6.697E-02,4.274E-02,3.022E-02,6.944E-02,4.009E-02
1989-08-27T00:00:54.290 ,1989-08-27 00:01:41.480 ,3,1,0.466,9.934E-02,0.235,7.084E-02,0.172,6.094E-02,6.410E-02,3.701E-02,0.116,5.176E-02
1989-08-27T00:01:42.290 ,1989-08-27 00:02:29.480 ,4,1,0.360,8.734E-02,0.299,7.993E-02,0.192,6.409E-02,0.171,6.042E-02,0.139,5.668E-02
1989-08-27T00:02:30.290 ,1989-08-27 00:03:17.480 ,5,1,0.403,9.233E-02,0.363,8.809E-02,0.169,5.990E-02,0.171,6.042E-02,0.208,6.943E-02
1989-08-27T00:03:18.290 ,1989-08-27 00:04:05.480 ,6,1,0.487,0.102,0.406,9.312E-02,0.194,6.465E-02,0.171,6.042E-02,9.259E-02,4.630E-02
1989-08-27T00:04:06.290 ,1989-08-27 00:04:53.480 ,7,1,0.636,0.116,0.470,0.100,0.321,8.273E-02,0.128,5.232E-02,6.944E-02,4.009E-02
1989-08-27T00:04:54.290 ,1989-08-27 00:05:59.040 ,8,1,0.719,0.106,0.557,9.414E-02,0.577,9.609E-02,0.346,7.372E-02,0.133,5.009E-02
1989-08-27T00:05:59.110 ,1989-08-27 00:06:29.480 ,8,-1,0.822,0.164,0.473,0.126,0.667,0.149,0.333,0.105,0.119,5.952E-02
1989-08-27T00:06:30.290 ,1989-08-27 00:07:17.480 ,7,-1,0.572,0.110,0.427,9.555E-02,0.212,6.697E-02,0.128,5.232E-02,0.116,5.176E-02
1989-08-27T00:07:18.290 ,1989-08-27 00:08:05.480 ,6,-1,0.508,0.104,0.321,8.273E-02,0.297,7.925E-02,0.171,6.042E-02,0.139,5.668E-02
1989-08-27T00:08:06.290 ,1989-08-27 00:08:53.480 ,5,-1,0.530,0.106,0.278,7.704E-02,0.171,6.042E-02,0.171,6.042E-02,0.162,6.122E-02
1989-08-27T00:08:54.290 ,1989-08-27 00:09:41.480 ,4,-1,0.318,8.203E-02,0.417,9.557E-02,0.235,7.084E-02,0.214,6.754E-02,0.116,5.176E-02
1989-08-27T00:09:42.290 ,1989-08-27 00:10:29.480 ,3,-1,0.657,0.118,0.360,8.734E-02,0.278,7.704E-02,0.128,5.232E-02,6.944E-02,4.009E-02
1989-08-27T00:10:30.290 ,1989-08-27 00:11:17.480 ,2,-1,0.445,9.705E-02,0.360,8.734E-02,0.280,7.770E-02,0.171,6.042E-02,4.630E-02,3.273E-02
1989-08-27T00:11:17.480 ,1989-08-27 00:12:05.850 ,1,-1,0.897,0.170,0.455,0.121,0.162,7.260E-02,9.615E-02,5.551E-02,4.630E-02,3.273E-02
1989-08-27T00:12:06.290 ,1989-08-27 00:12:53.480 ,1,1,0.699,0.122,0.237,7.145E-02,0.212,6.697E-02,0.107,4.778E-02,2.315E-02,2.315E-02
1989-08-27T00:12:54.290 ,1989-08-27 00:13:41.480 ,2,1,0.191,6.355E-02,0.323,8.345E-02,6.356E-02,3.670E-02,0.107,4.778E-02,9.259E-02,4.630E-02
1989-08-27T00:13:42.290 ,1989-08-27 00:14:29.480 ,3,1,0.572,0.110,0.302,8.062E-02,0.275,7.639E-02,0.128,5.232E-02,9.259E-02,4.630E-02
1989-08-27T00:14:30.290 ,1989-08-27 00:15:17.480 ,4,1,0.381,8.986E-02,0.641,0.117,0.106,4.737E-02,0.171,6.042E-02,9.259E-02,4.630E-02
1989-08-27T00:15:18.290 ,1989-08-27 00:16:05.480 ,5,1,0.403,9.233E-02,0.278,7.704E-02,0.212,6.697E-02,0.107,4.778E-02,4.630E-02,3.273E-02
1989-08-27T00:16:06.290 ,1989-08-27 00:16:53.480 ,6,1,0.530,0.106,0.445,9.705E-02,0.191,6.355E-02,0.171,6.042E-02,0.139,5.668E-02
1989-08-27T00:16:54.290 ,1989-08-27 00:17:41.480 ,7,1,0.381,8.986E-02,0.388,9.141E-02,0.171,6.042E-02,0.214,6.754E-02,0.116,5.176E-02
1989-08-27T00:17:42.290 ,1989-08-27 00:18:47.040 ,8,1,0.563,9.369E-02,0.597,9.690E-02,0.427,8.217E-02,0.299,6.852E-02,0.133,5.009E-02
1989-08-27T00:18:47.100 ,1989-08-27 00:19:17.480 ,8,-1,0.789,0.161,0.514,0.133,0.372,0.112,0.400,0.115,0.119,5.952E-02
1989-08-27T00:19:18.290 ,1989-08-27 00:20:05.480 ,7,-1,0.445,9.705E-02,0.360,8.734E-02,0.508,0.104,0.150,5.651E-02,0.162,6.122E-02
1989-08-27T00:20:06.290 ,1989-08-27 00:20:53.480 ,6,-1,0.424,9.474E-02,0.406,9.312E-02,0.150,5.651E-02,0.171,6.042E-02,2.315E-02,2.315E-02
1989-08-27T00:20:54.290 ,1989-08-27 00:21:41.480 ,5,-1,0.424,9.474E-02,0.323,8.345E-02,0.318,8.203E-02,0.150,5.651E-02,9.259E-02,4.630E-02
1989-08-27T00:21:42.290 ,1989-08-27 00:22:29.480 ,4,-1,0.275,7.639E-02,0.445,9.705E-02,0.212,6.697E-02,0.171,6.042E-02,0.208,6.943E-02
1989-08-27T00:22:30.290 ,1989-08-27 00:23:17.480 ,3,-1,0.466,9.934E-02,0.449,9.788E-02,0.299,7.993E-02,0.321,8.273E-02,0.116,5.176E-02
1989-08-27T00:23:18.290 ,1989-08-27 00:24:05.480 ,2,-1,0.424,9.474E-02,0.424,9.474E-02,0.360,8.734E-02,0.128,5.232E-02,0.231,7.317E-02
1989-08-27T00:24:05.480 ,1989-08-27 00:24:53.850 ,1,-1,0.673,0.147,0.353,0.106,9.615E-02,5.551E-02,6.410E-02,4.532E-02,0.162,6.122E-02
1989-08-27T00:24:54.290 ,1989-08-27 00:25:41.480 ,1,1,0.847,0.134,0.363,8.809E-02,0.275,7.639E-02,0.192,6.409E-02,0.185,6.545E-02
1989-08-27T00:25:42.290 ,1989-08-27 00:26:29.480 ,2,1,0.530,0.106,0.212,6.697E-02,0.278,7.704E-02,0.150,5.651E-02,0.116,5.176E-02
1989-08-27T00:26:30.290 ,1989-08-27 00:27:17.480 ,3,1,0.466,9.934E-02,0.235,7.084E-02,0.297,7.925E-02,4.274E-02,3.022E-02,0.116,5.176E-02
1989-08-27T00:27:18.290 ,1989-08-27 00:28:05.480 ,4,1,0.551,0.108,0.424,9.474E-02,0.233,7.024E-02,8.547E-02,4.274E-02,9.259E-02,4.630E-02
1989-08-27T00:28:06.290 ,1989-08-27 00:28:53.480 ,5,1,0.551,0.108,0.278,7.704E-02,0.171,6.042E-02,0.171,6.042E-02,0.139,5.668E-02
1989-08-27T00:28:54.290 ,1989-08-27 00:29:41.480 ,6,1,0.424,9.474E-02,0.216,6.812E-02,0.381,8.986E-02,0.107,4.778E-02,0.231,7.317E-02
1989-08-27T00:29:42.290 ,1989-08-27 00:30:29.480 ,7,1,0.551,0.108,0.192,6.409E-02,0.150,5.651E-02,8.547E-02,4.274E-02,0.139,5.668E-02
1989-08-27T00:30:30.290 ,1989-08-27 00:31:35.040 ,8,1,0.375,7.652E-02,0.446,8.423E-02,0.459,8.518E-02,0.393,7.862E-02,7.576E-02,3.788E-02
1989-08-27T00:31:35.100 ,1989-08-27 00:32:05.480 ,8,-1,0.625,0.143,0.433,0.120,0.592,0.140,0.233,8.816E-02,5.952E-02,4.209E-02
1989-08-27T00:32:06.290 ,1989-08-27 00:32:53.480 ,7,-1,0.720,0.123,0.381,8.986E-02,0.192,6.409E-02,8.547E-02,4.274E-02,0.139,5.668E-02
1989-08-27T00:32:54.290 ,1989-08-27 00:33:41.480 ,6,-1,0.508,0.104,0.534,0.107,0.191,6.355E-02,0.150,5.651E-02,0.139,5.668E-02
1989-08-27T00:33:42.290 ,1989-08-27 00:34:29.480 ,5,-1,0.297,7.925E-02,0.254,7.337E-02,0.127,5.188E-02,6.410E-02,3.701E-02,0.185,6.545E-02
1989-08-27T00:34:30.290 ,1989-08-27 00:35:17.480 ,4,-1,0.381,8.986E-02,0.388,9.141E-02,0.278,7.704E-02,0.192,6.409E-02,9.259E-02,4.630E-02
1989-08-27T00:35:18.290 ,1989-08-27 00:36:05.480 ,3,-1,0.487,0.102,0.381,8.986E-02,0.363,8.809E-02,0.171,6.042E-02,0.116,5.176E-02
1989-08-27T00:36:06.290 ,1989-08-27 00:36:53.480 ,2,-1,0.318,8.203E-02,0.342,8.547E-02,0.212,6.697E-02,0.128,5.232E-02,0.208,6.943E-02
1989-08-27T00:36:53.480 ,1989-08-27 00:37:41.850 ,1,-1,0.865,0.166,0.292,9.739E-02,0.422,0.117,0.128,6.410E-02,0.231,7.317E-02
1989-08-27T00:37:42.290 ,1989-08-27 00:38:29.480 ,1,1,0.699,0.122,0.395,9.301E-02,0.339,8.475E-02,0.278,7.704E-02,0.116,5.176E-02
1989-08-27T00:38:30.290 ,1989-08-27 00:39:17.480 ,2,1,0.297,7.925E-02,0.385,9.063E-02,0.192,6.409E-02,6.410E-02,3.701E-02,9.259E-02,4.630E-02
1989-08-27T00:39:18.290 ,1989-08-27 00:40:05.480 ,3,1,0.466,9.934E-02,0.381,8.986E-02,0.254,7.337E-02,0.235,7.084E-02,0.000E+00,0.000E+00
1989-08-27T00:40:06.290 ,1989-08-27 00:40:53.480 ,4,1,0.381,8.986E-02,0.345,8.621E-02,0.214,6.754E-02,0.128,5.232E-02,0.162,6.122E-02
1989-08-27T00:40:54.290 ,1989-08-27 00:41:41.480 ,5,1,0.530,0.106,0.321,8.273E-02,0.212,6.697E-02,0.192,6.409E-02,0.139,5.668E-02
1989-08-27T00:41:42.290 ,1989-08-27 00:42:29.480 ,6,1,0.297,7.925E-02,0.431,9.638E-02,0.191,6.355E-02,0.128,5.232E-02,0.185,6.545E-02
1989-08-27T00:42:30.290 ,1989-08-27 00:43:17.480 ,7,1,0.530,0.106,0.556,0.109,0.275,7.639E-02,0.150,5.651E-02,9.259E-02,4.630E-02
1989-08-27T00:43:18.290 ,1989-08-27 00:44:23.040 ,8,1,0.609,9.750E-02,0.637,0.101,0.585,9.623E-02,0.330,7.202E-02,5.682E-02,3.280E-02
1989-08-27T00:44:23.100 ,1989-08-27 00:44:53.480 ,8,-1,0.691,0.151,0.600,0.141,0.395,0.114,0.200,8.163E-02,0.119,5.952E-02
1989-08-27T00:44:54.290 ,1989-08-27 00:45:41.480 ,7,-1,0.466,9.934E-02,0.449,9.788E-02,0.254,7.337E-02,0.107,4.778E-02,0.116,5.176E-02
1989-08-27T00:45:42.290 ,1989-08-27 00:46:29.480 ,6,-1,0.657,0.118,0.403,9.233E-02,0.212,6.697E-02,0.214,6.754E-02,6.944E-02,4.009E-02
1989-08-27T00:46:30.290 ,1989-08-27 00:47:17.480 ,5,-1,0.551,0.108,0.326,8.417E-02,0.275,7.639E-02,0.128,5.232E-02,4.630E-02,3.273E-02
1989-08-27T00:47:18.290 ,1989-08-27 00:48:05.480 ,4,-1,0.360,8.734E-02,0.366,8.885E-02,0.339,8.475E-02,0.171,6.042E-02,0.162,6.122E-02
1989-08-27T00:48:06.290 ,1989-08-27 00:48:53.480 ,3,-1,0.424,9.474E-02,0.534,0.107,0.106,4.737E-02,0.171,6.042E-02,2.315E-02,2.315E-02
1989-08-27T00:48:54.290 ,1989-08-27 00:49:41.480 ,2,-1,0.487,0.102,0.323,8.345E-02,0.214,6.754E-02,0.150,5.651E-02,0.116,5.176E-02
1989-08-27T00:49:41.480 ,1989-08-27 00:50:29.850 ,1,-1,0.577,0.136,0.195,7.950E-02,0.195,7.950E-02,6.410E-02,4.532E-02,0.162,6.122E-02
1989-08-27T00:50:30.290 ,1989-08-27 00:51:17.480 ,1,1,0.593,0.112,0.449,9.788E-02,0.212,6.697E-02,0.107,4.778E-02,4.630E-02,3.273E-02
1989-08-27T00:51:18.290 ,1989-08-27 00:52:05.480 ,2,1,0.508,0.104,0.508,0.104,0.233,7.024E-02,2.137E-02,2.137E-02,0.162,6.122E-02
1989-08-27T00:52:06.290 ,1989-08-27 00:52:53.480 ,3,1,0.551,0.108,0.318,8.203E-02,0.191,6.355E-02,4.274E-02,3.022E-02,0.185,6.545E-02
1989-08-27T00:52:54.290 ,1989-08-27 00:53:41.480 ,4,1,0.466,9.934E-02,0.128,5.232E-02,0.191,6.355E-02,0.192,6.409E-02,0.139,5.668E-02
1989-08-27T00:53:42.290 ,1989-08-27 00:54:29.480 ,5,1,0.318,8.203E-02,0.297,7.925E-02,0.254,7.337E-02,8.547E-02,4.274E-02,6.944E-02,4.009E-02
1989-08-27T00:54:30.290 ,1989-08-27 00:55:17.480 ,6,1,0.466,9.934E-02,0.381,8.986E-02,0.191,6.355E-02,8.547E-02,4.274E-02,9.259E-02,4.630E-02
1989-08-27T00:55:18.290 ,1989-08-27 00:56:05.480 ,7,1,0.403,9.233E-02,0.256,7.400E-02,0.254,7.337E-02,0.235,7.084E-02,0.116,5.176E-02
1989-08-27T00:56:06.290 ,1989-08-27 00:57:11.040 ,8,1,0.594,9.630E-02,0.625,9.873E-02,0.573,9.548E-02,0.236,6.088E-02,0.133,5.009E-02
1989-08-27T00:57:11.100 ,1989-08-27 00:57:41.480 ,8,-1,0.395,0.114,0.724,0.154,0.493,0.127,0.300,0.100,0.119,5.952E-02
1989-08-27T00:57:42.290 ,1989-08-27 00:58:29.480 ,7,-1,0.424,9.474E-02,0.403,9.233E-02,0.233,7.024E-02,0.171,6.042E-02,0.162,6.122E-02
1989-08-27T00:58:30.290 ,1989-08-27 00:59:17.480 ,6,-1,0.360,8.734E-02,0.192,6.409E-02,0.151,5.700E-02,0.171,6.042E-02,6.944E-02,4.009E-02
1989-08-27T00:59:18.290 ,1989-08-27 00:00:05.480 ,5,-1,0.445,9.705E-02,0.363,8.809E-02,0.254,7.337E-02,0.214,6.754E-02,0.139,5.668E-02
1989-08-27T01:00:06.290 ,1989-08-27 01:00:53.480 ,4,-1,0.593,0.112,0.297,7.925E-02,0.148,5.603E-02,0.150,5.651E-02,0.255,7.675E-02
1989-08-27T01:00:54.290 ,1989-08-27 01:01:41.480 ,3,-1,0.636,0.116,0.339,8.475E-02,0.297,7.925E-02,0.214,6.754E-02,0.162,6.122E-02
1989-08-27T01:01:42.290 ,1989-08-27 01:02:29.480 ,2,-1,0.487,0.102,0.214,6.754E-02,0.388,9.141E-02,0.150,5.651E-02,9.259E-02,4.630E-02
1989-08-27T01:02:29.480 ,1989-08-27 01:03:17.850 ,1,-1,0.897,0.170,0.417,0.116,0.321,0.101,0.128,6.410E-02,0.278,8.016E-02
1989-08-27T01:03:18.290 ,1989-08-27 01:04:05.480 ,1,1,0.636,0.116,0.406,9.312E-02,0.212,6.697E-02,0.107,4.778E-02,4.630E-02,3.273E-02
1989-08-27T01:04:06.290 ,1989-08-27 01:04:53.480 ,2,1,0.403,9.233E-02,0.363,8.809E-02,0.233,7.024E-02,0.128,5.232E-02,6.944E-02,4.009E-02
1989-08-27T01:04:54.290 ,1989-08-27 01:05:41.480 ,3,1,0.508,0.104,0.363,8.809E-02,0.194,6.465E-02,0.150,5.651E-02,9.259E-02,4.630E-02
1989-08-27T01:05:42.290 ,1989-08-27 01:06:29.480 ,4,1,0.445,9.705E-02,0.192,6.409E-02,0.275,7.639E-02,8.547E-02,4.274E-02,6.944E-02,4.009E-02
1989-08-27T01:06:30.290 ,1989-08-27 01:07:17.480 ,5,1,0.403,9.233E-02,0.360,8.734E-02,0.127,5.188E-02,0.235,7.084E-02,9.259E-02,4.630E-02
1989-08-27T01:07:18.290 ,1989-08-27 01:08:05.480 ,6,1,0.360,8.734E-02,0.323,8.345E-02,0.254,7.337E-02,0.256,7.400E-02,0.255,7.675E-02
1989-08-27T01:08:06.290 ,1989-08-27 01:08:53.480 ,7,1,0.466,9.934E-02,0.339,8.475E-02,0.318,8.203E-02,0.128,5.232E-02,0.139,5.668E-02
1989-08-27T01:08:54.290 ,1989-08-27 01:09:59.040 ,8,1,0.438,8.265E-02,0.617,9.873E-02,0.494,8.862E-02,0.362,7.538E-02,0.133,5.009E-02
1989-08-27T01:09:59.100 ,1989-08-27 01:10:29.480 ,8,-1,0.559,0.136,0.500,0.129,0.921,0.174,0.267,9.425E-02,0.119,5.952E-02
1989-08-27T01:10:30.290 ,1989-08-27 01:11:17.480 ,7,-1,0.530,0.106,0.212,6.697E-02,0.278,7.704E-02,0.150,5.651E-02,0.116,5.176E-02
1989-08-27T01:11:18.290 ,1989-08-27 01:12:05.480 ,6,-1,0.508,0.104,0.212,6.697E-02,0.254,7.337E-02,0.150,5.651E-02,0.208,6.943E-02
1989-08-27T01:12:06.290 ,1989-08-27 01:12:53.480 ,5,-1,0.551,0.108,0.275,7.639E-02,0.339,8.475E-02,0.192,6.409E-02,0.185,6.545E-02
1989-08-27T01:12:54.290 ,1989-08-27 01:13:41.480 ,4,-1,0.551,0.108,0.403,9.233E-02,0.233,7.024E-02,0.278,7.704E-02,0.139,5.668E-02
1989-08-27T01:13:42.290 ,1989-08-27 01:14:29.480 ,3,-1,0.254,7.337E-02,0.339,8.475E-02,0.275,7.639E-02,0.107,4.778E-02,6.944E-02,4.009E-02
1989-08-27T01:14:30.290 ,1989-08-27 01:15:17.480 ,2,-1,0.551,0.108,0.299,7.993E-02,0.318,8.203E-02,0.192,6.409E-02,0.116,5.176E-02
1989-08-27T01:15:17.480 ,1989-08-27 01:16:05.850 ,1,-1,0.545,0.132,0.329,0.104,0.224,8.477E-02,0.128,6.410E-02,0.139,5.668E-02
1989-08-27T01:16:06.290 ,1989-08-27 01:16:53.470 ,1,1,0.636,0.116,0.385,9.063E-02,0.254,7.337E-02,0.171,6.042E-02,0.185,6.545E-02
1989-08-27T01:16:54.290 ,1989-08-27 01:17:41.470 ,2,1,0.381,8.986E-02,0.169,5.990E-02,0.406,9.312E-02,0.214,6.754E-02,0.162,6.122E-02
1989-08-27T01:17:42.290 ,1989-08-27 01:18:29.470 ,3,1,0.339,8.475E-02,0.363,8.809E-02,0.275,7.639E-02,0.150,5.651E-02,0.116,5.176E-02
1989-08-27T01:18:30.290 ,1989-08-27 01:19:17.470 ,4,1,0.508,0.104,0.403,9.233E-02,0.235,7.084E-02,8.547E-02,4.274E-02,6.944E-02,4.009E-02
1989-08-27T01:19:18.290 ,1989-08-27 01:20:05.470 ,5,1,0.381,8.986E-02,0.297,7.925E-02,0.169,5.990E-02,8.547E-02,4.274E-02,6.944E-02,4.009E-02
1989-08-27T01:20:06.290 ,1989-08-27 01:20:53.470 ,6,1,0.530,0.106,0.299,7.993E-02,0.169,5.990E-02,0.150,5.651E-02,0.116,5.176E-02
1989-08-27T01:20:54.290 ,1989-08-27 01:21:41.470 ,7,1,0.614,0.114,0.487,0.102,0.321,8.273E-02,0.107,4.778E-02,0.116,5.176E-02
1989-08-27T01:21:42.290 ,1989-08-27 01:22:47.040 ,8,1,0.469,8.555E-02,0.513,9.062E-02,0.519,9.032E-02,0.283,6.669E-02,7.576E-02,3.788E-02
1989-08-27T01:22:47.100 ,1989-08-27 01:23:17.470 ,8,-1,0.329,0.104,0.439,0.122,0.600,0.141,0.347,0.110,0.149,6.655E-02
1989-08-27T01:23:18.290 ,1989-08-27 01:24:05.470 ,7,-1,0.636,0.116,0.302,8.062E-02,0.237,7.145E-02,0.171,6.042E-02,0.185,6.545E-02
1989-08-27T01:24:06.290 ,1989-08-27 01:24:53.470 ,6,-1,0.403,9.233E-02,0.256,7.400E-02,0.169,5.990E-02,0.107,4.778E-02,6.944E-02,4.009E-02
1989-08-27T01:24:54.290 ,1989-08-27 01:25:41.470 ,5,-1,0.381,8.986E-02,0.381,8.986E-02,0.108,4.819E-02,0.235,7.084E-02,6.944E-02,4.009E-02
1989-08-27T01:25:42.290 ,1989-08-27 01:26:29.470 ,4,-1,0.381,8.986E-02,0.237,7.145E-02,0.280,7.770E-02,0.128,5.232E-02,0.185,6.545E-02
1989-08-27T01:26:30.290 ,1989-08-27 01:27:17.470 ,3,-1,0.508,0.104,0.470,0.100,0.214,6.754E-02,0.171,6.042E-02,6.944E-02,4.009E-02
1989-08-27T01:27:18.290 ,1989-08-27 01:28:05.470 ,2,-1,0.530,0.106,0.239,7.208E-02,0.150,5.651E-02,6.410E-02,3.701E-02,0.000E+00,0.000E+00
1989-08-27T01:28:05.470 ,1989-08-27 01:28:53.850 ,1,-1,0.673,0.147,0.390,0.112,0.162,7.260E-02,9.615E-02,5.551E-02,0.255,7.675E-02
1989-08-27T01:28:54.290 ,1989-08-27 01:29:41.470 ,1,1,0.805,0.131,0.339,8.475E-02,0.150,5.651E-02,0.150,5.651E-02,6.944E-02,4.009E-02
1989-08-27T01:29:42.290 ,1989-08-27 01:30:29.470 ,2,1,0.360,8.734E-02,0.321,8.273E-02,0.233,7.024E-02,0.278,7.704E-02,2.315E-02,2.315E-02
1989-08-27T01:30:30.290 ,1989-08-27 01:31:17.470 ,3,1,0.424,9.474E-02,0.360,8.734E-02,0.169,5.990E-02,8.547E-02,4.274E-02,9.259E-02,4.630E-02
1989-08-27T01:31:18.290 ,1989-08-27 01:32:05.470 ,4,1,0.466,9.934E-02,0.299,7.993E-02,0.259,7.464E-02,0.171,6.042E-02,6.944E-02,4.009E-02
1989-08-27T01:32:06.290 ,1989-08-27 01:32:53.470 ,5,1,0.508,0.104,0.299,7.993E-02,0.235,7.084E-02,0.214,6.754E-02,0.116,5.176E-02
1989-08-27T01:32:54.290 ,1989-08-27 01:33:41.470 ,6,1,0.445,9.705E-02,0.445,9.705E-02,0.233,7.024E-02,8.547E-02,4.274E-02,0.185,6.545E-02
1989-08-27T01:33:42.290 ,1989-08-27 01:34:29.470 ,7,1,0.551,0.108,0.445,9.705E-02,0.128,5.232E-02,0.150,5.651E-02,9.259E-02,4.630E-02
1989-08-27T01:34:30.290 ,1989-08-27 01:35:35.040 ,8,1,0.578,9.503E-02,0.535,9.163E-02,0.566,9.428E-02,0.377,7.700E-02,0.133,5.009E-02
1989-08-27T01:35:35.100 ,1989-08-27 01:36:05.470 ,8,-1,0.625,0.143,0.685,0.153,0.500,0.129,0.267,9.425E-02,8.929E-02,5.155E-02
1989-08-27T01:36:06.290 ,1989-08-27 01:36:53.470 ,7,-1,0.657,0.118,0.283,7.838E-02,0.212,6.697E-02,6.410E-02,3.701E-02,0.278,8.016E-02
1989-08-27T01:36:54.290 ,1989-08-27 01:37:41.470 ,6,-1,0.339,8.475E-02,0.491,0.102,0.169,5.990E-02,6.410E-02,3.701E-02,0.185,6.545E-02
1989-08-27T01:37:42.290 ,1989-08-27 01:38:29.470 ,5,-1,0.487,0.102,0.318,8.203E-02,0.254,7.337E-02,0.171,6.042E-02,0.162,6.122E-02
1989-08-27T01:38:30.290 ,1989-08-27 01:39:17.470 ,4,-1,0.381,8.986E-02,0.259,7.464E-02,0.194,6.465E-02,0.128,5.232E-02,6.944E-02,4.009E-02
1989-08-27T01:39:18.290 ,1989-08-27 01:40:05.470 ,3,-1,0.381,8.986E-02,0.342,8.547E-02,8.621E-02,4.310E-02,6.410E-02,3.701E-02,6.944E-02,4.009E-02
1989-08-27T01:40:06.290 ,1989-08-27 01:40:53.470 ,2,-1,0.403,9.233E-02,0.256,7.400E-02,0.318,8.203E-02,0.171,6.042E-02,4.630E-02,3.273E-02
1989-08-27T01:40:53.470 ,1989-08-27 01:41:41.850 ,1,-1,0.705,0.150,0.545,0.132,0.224,8.477E-02,0.256,9.062E-02,0.162,6.122E-02
1989-08-27T01:41:42.290 ,1989-08-27 01:42:29.470 ,1,1,0.847,0.134,0.214,6.754E-02,0.212,6.697E-02,0.150,5.651E-02,0.139,5.668E-02
1989-08-27T01:42:30.290 ,1989-08-27 01:43:17.470 ,2,1,0.360,8.734E-02,0.360,8.734E-02,0.233,7.024E-02,0.107,4.778E-02,0.162,6.122E-02
1989-08-27T01:43:18.290 ,1989-08-27 01:44:05.470 ,3,1,0.424,9.474E-02,0.424,9.474E-02,0.297,7.925E-02,0.128,5.232E-02,0.116,5.176E-02
1989-08-27T01:44:06.290 ,1989-08-27 01:44:53.470 ,4,1,0.487,0.102,0.388,9.141E-02,0.275,7.639E-02,0.214,6.754E-02,0.116,5.176E-02
1989-08-27T01:44:54.290 ,1989-08-27 01:45:41.470 ,5,1,0.360,8.734E-02,0.406,9.312E-02,0.192,6.409E-02,6.410E-02,3.701E-02,0.162,6.122E-02
1989-08-27T01:45:42.290 ,1989-08-27 01:46:29.470 ,6,1,0.360,8.734E-02,0.191,6.355E-02,0.127,5.188E-02,0.128,5.232E-02,0.162,6.122E-02
1989-08-27T01:46:30.290 ,1989-08-27 01:47:17.470 ,7,1,0.487,0.102,0.297,7.925E-02,0.275,7.639E-02,0.214,6.754E-02,4.630E-02,3.273E-02
1989-08-27T01:47:18.290 ,1989-08-27 01:48:23.040 ,8,1,0.656,0.101,0.802,0.112,0.411,8.067E-02,0.283,6.669E-02,0.170,5.681E-02
1989-08-27T01:48:23.100 ,1989-08-27 01:48:53.470 ,8,-1,0.428,0.119,0.329,0.104,0.342,0.108,0.133,6.667E-02,2.976E-02,2.976E-02
1989-08-27T01:48:54.290 ,1989-08-27 01:49:41.470 ,7,-1,0.403,9.233E-02,0.152,5.749E-02,0.254,7.337E-02,0.256,7.400E-02,2.315E-02,2.315E-02
1989-08-27T01:49:42.290 ,1989-08-27 01:50:29.470 ,6,-1,0.487,0.102,0.342,8.547E-02,0.233,7.024E-02,8.772E-02,4.386E-02,9.259E-02,4.630E-02
1989-08-27T01:50:30.290 ,1989-08-27 01:51:17.470 ,5,-1,0.466,9.934E-02,0.275,7.639E-02,0.214,6.754E-02,0.192,6.409E-02,0.185,6.545E-02
1989-08-27T01:51:18.290 ,1989-08-27 01:52:05.470 ,4,-1,0.424,9.474E-02,0.302,8.062E-02,0.233,7.024E-02,8.547E-02,4.274E-02,0.162,6.122E-02
1989-08-27T01:52:06.290 ,1989-08-27 01:52:53.470 ,3,-1,0.593,0.112,0.427,9.555E-02,0.254,7.337E-02,0.192,6.409E-02,0.139,5.668E-02
1989-08-27T01:52:54.290 ,1989-08-27 01:53:41.470 ,2,-1,0.487,0.102,0.530,0.106,0.278,7.704E-02,8.547E-02,4.274E-02,4.630E-02,3.273E-02
1989-08-27T01:53:41.470 ,1989-08-27 01:54:29.850 ,1,-1,0.641,0.143,0.357,0.108,0.256,9.062E-02,0.160,7.166E-02,0.116,5.176E-02
1989-08-27T01:54:30.290 ,1989-08-27 01:55:17.470 ,1,1,0.678,0.120,0.385,9.063E-02,0.254,7.337E-02,0.235,7.084E-02,6.944E-02,4.009E-02
1989-08-27T01:55:18.280 ,1989-08-27 01:56:05.470 ,2,1,0.339,8.475E-02,0.321,8.273E-02,0.216,6.812E-02,0.150,5.651E-02,0.231,7.317E-02
1989-08-27T01:56:06.280 ,1989-08-27 01:56:53.470 ,3,1,0.551,0.108,0.233,7.024E-02,0.127,5.188E-02,0.192,6.409E-02,0.139,5.668E-02
1989-08-27T01:56:54.280 ,1989-08-27 01:57:41.470 ,4,1,0.318,8.203E-02,0.449,9.788E-02,0.299,7.993E-02,0.107,4.778E-02,6.944E-02,4.009E-02
1989-08-27T01:57:42.280 ,1989-08-27 01:58:29.470 ,5,1,0.551,0.108,0.191,6.355E-02,0.318,8.203E-02,0.192,6.409E-02,4.630E-02,3.273E-02
1989-08-27T01:58:30.280 ,1989-08-27 01:59:17.470 ,6,1,0.508,0.104,0.424,9.474E-02,0.254,7.337E-02,8.547E-02,4.274E-02,0.162,6.122E-02
1989-08-27T01:59:18.280 ,1989-08-27 01:00:05.470 ,7,1,0.445,9.705E-02,0.299,7.993E-02,0.256,7.400E-02,4.274E-02,3.022E-02,0.208,6.943E-02
1989-08-27T02:00:06.280 ,1989-08-27 02:01:11.030 ,8,1,0.578,9.503E-02,0.563,9.369E-02,0.469,8.555E-02,0.417,8.171E-02,0.170,5.681E-02
1989-08-27T02:01:11.100 ,1989-08-27 02:01:41.470 ,8,-1,0.789,0.161,0.304,0.101,0.362,0.109,0.533,0.133,0.119,5.952E-02
1989-08-27T02:01:42.280 ,1989-08-27 02:02:29.470 ,7,-1,0.508,0.104,0.385,9.063E-02,0.363,8.809E-02,0.128,5.232E-02,0.185,6.545E-02
1989-08-27T02:02:30.280 ,1989-08-27 02:03:17.470 ,6,-1,0.487,0.102,0.275,7.639E-02,0.233,7.024E-02,0.150,5.651E-02,0.139,5.668E-02
1989-08-27T02:03:18.280 ,1989-08-27 02:04:05.470 ,5,-1,0.508,0.104,0.363,8.809E-02,0.233,7.024E-02,0.128,5.232E-02,0.116,5.176E-02
1989-08-27T02:04:06.280 ,1989-08-27 02:04:53.470 ,4,-1,0.403,9.233E-02,0.388,9.141E-02,0.297,7.925E-02,0.214,6.754E-02,0.278,8.016E-02
1989-08-27T02:04:54.280 ,1989-08-27 02:05:41.470 ,3,-1,0.466,9.934E-02,0.366,8.885E-02,0.150,5.651E-02,0.150,5.651E-02,2.315E-02,2.315E-02
1989-08-27T02:05:42.280 ,1989-08-27 02:06:29.470 ,2,-1,0.339,8.475E-02,0.297,7.925E-02,0.275,7.639E-02,8.547E-02,4.274E-02,6.944E-02,4.009E-02
1989-08-27T02:06:29.470 ,1989-08-27 02:07:17.850 ,1,-1,0.769,0.157,0.353,0.106,0.192,7.849E-02,0.224,8.477E-02,0.162,6.122E-02
1989-08-27T02:07:18.280 ,1989-08-27 02:08:05.470 ,1,1,0.657,0.118,0.192,6.409E-02,0.275,7.639E-02,0.150,5.651E-02,0.116,5.176E-02
1989-08-27T02:08:06.280 ,1989-08-27 02:08:53.470 ,2,1,0.297,7.925E-02,0.339,8.475E-02,0.212,6.697E-02,0.107,4.778E-02,0.162,6.122E-02
1989-08-27T02:08:54.280 ,1989-08-27 02:09:41.470 ,3,1,0.508,0.104,0.409,9.393E-02,0.233,7.024E-02,6.410E-02,3.701E-02,4.630E-02,3.273E-02
1989-08-27T02:09:42.280 ,1989-08-27 02:10:29.470 ,4,1,0.445,9.705E-02,0.363,8.809E-02,0.191,6.355E-02,0.171,6.042E-02,4.630E-02,3.273E-02
1989-08-27T02:10:30.280 ,1989-08-27 02:11:17.470 ,5,1,0.508,0.104,0.233,7.024E-02,0.318,8.203E-02,0.150,5.651E-02,0.139,5.668E-02
1989-08-27T02:11:18.280 ,1989-08-27 02:12:05.470 ,6,1,0.636,0.116,0.572,0.110,0.513,0.105,0.192,6.409E-02,9.259E-02,4.630E-02
1989-08-27T02:12:06.280 ,1989-08-27 02:12:53.470 ,7,1,0.572,0.110,0.256,7.400E-02,0.171,6.042E-02,0.128,5.232E-02,4.630E-02,3.273E-02
1989-08-27T02:12:54.280 ,1989-08-27 02:13:59.030 ,8,1,0.500,8.836E-02,0.531,9.106E-02,0.665,0.102,0.393,7.862E-02,0.152,5.355E-02
1989-08-27T02:13:59.100 ,1989-08-27 02:14:29.470 ,8,-1,0.296,9.867E-02,0.667,0.149,0.533,0.133,0.433,0.120,0.238,8.415E-02